User: anonymous   Login
Location: Unspecified
(0.0000°N, 0.0000°E)
Time: 01:24:27
(UTC+00:00)
Language:

Transit VBN-1 - Orbit

View from above orbital plane
View from above orbital plane
View from above satellite
View from above satellite

Ground track
Ground track

The orbit data is extracted from the following two-line orbital elements,

1 00670U 63038B   24106.55343591  .00000127  00000-0  19944-3 0  9991
2 00670  89.9936 334.6244 0042611 141.5683 218.8513 13.44505490967664
Epoch (UTC): 15 April 2024 13:16:56
Eccentricity: 0.0042611
inclination: 89.9936°
perigee height: 1061 km
apogee height: 1124 km
right ascension of ascending node: 334.6244°
argument of perigee: 141.5683°
revolutions per day: 13.44505490
mean anomaly at epoch: 218.8513°
orbit number at epoch: 96766

The dashed part of the orbit path shows where the satellite is in the earth's shadow,  

DLR